Palacios, TX

2:12 PM CST on January 19, 2018 (GMT -0600)
Palacios Municipal

Weather History for KPSX - December, 2013

Change the Weather History Date:

Friday, December 13, 2013

  Actual Average Record
Temperature  
Mean Temperature 55 °F -  
Max Temperature 68 °F 64 °F 79 °F (1950)
Min Temperature 42 °F 46 °F 22 °F (1989)
Degree Days  
Heating Degree Days 10    
Growing Degree Days 5 (Base 50)    
Moisture  
Dew Point 50 °F    
Average Humidity 84    
Maximum Humidity 93    
Minimum Humidity 73    
Precipitation  
Precipitation 0.00 in - - ()
Sea Level Pressure  
Sea Level Pressure 30.04 in    
Wind  
Wind Speed 7 mph (NNE)    
Max Wind Speed 10 mph    
Max Gust Speed 28 mph    
Visibility 9 miles    
Events      
Averages and records for this station are not official NWS values.
T = Trace of Precipitation, MM = Missing Value Source: NWS Daily Summary

Daily Weather History Graph

Daily Weather History Graph

Search for Another Location

Airport or City:

Trip Planner

Search our weather history database for the weather conditions in past years. The results will help you decide how hot, cold, wet, or windy it might be!

Date:

Astronomy

Dec. 13, 2013 Rise Set
Actual Time 7:09 AM CST 5:29 PM CST
Civil Twilight 6:43 AM CST 5:55 PM CST
Nautical Twilight 6:13 AM CST 6:24 PM CST
Astronomical Twilight 5:45 AM CST 6:53 PM CST
Moon 3:02 PM CST (12/13) 3:45 AM CST (12/13)
Length of Visible Light 11h 11m
Length of Day
10h 20m
Waxing Gibbous, 88% of the Moon is Illuminated
Dec 13
Waxing Gibbous
Dec 17
Full
Dec 25
Last Quarter
Jan 1
New
Jan 7
First Quarter

Hourly Weather History & Observations

Time (CST) Temp. Windchill Dew Point Humidity Pressure Visibility Wind Dir Wind Speed Gust Speed Precip Events Conditions
12:53 AM 42.1 °F 37.1 °F 39.0 °F 89% 30.31 in 10.0 mi NNE 8.1 mph - N/A   Clear
1:53 AM 43.0 °F 38.8 °F 39.0 °F 86% 30.29 in 10.0 mi North 6.9 mph - N/A   Clear
2:53 AM 43.0 °F 38.2 °F 39.0 °F 86% 30.24 in 10.0 mi NNE 8.1 mph - N/A   Clear
3:53 AM 43.0 °F 38.8 °F 39.0 °F 86% 30.23 in 10.0 mi North 6.9 mph - N/A   Clear
4:53 AM 44.1 °F 40.8 °F 39.9 °F 85% 30.20 in 10.0 mi NE 5.8 mph - N/A   Clear
5:53 AM 44.1 °F 40.1 °F 39.9 °F 85% 30.19 in 9.0 mi NNE 6.9 mph - N/A   Clear
6:53 AM 46.0 °F 42.5 °F 41.0 °F 83% 30.19 in 10.0 mi NNE 6.9 mph - N/A   Mostly Cloudy
7:53 AM 46.9 °F - 43.0 °F 86% 30.18 in 9.0 mi NNE 8.1 mph - N/A   Overcast
8:53 AM 48.9 °F - 44.1 °F 83% 30.17 in 9.0 mi NE 6.9 mph - N/A   Overcast
9:53 AM 54.0 °F - 46.9 °F 77% 30.13 in 10.0 mi East 8.1 mph - N/A   Mostly Cloudy
10:53 AM 57.9 °F - 50.0 °F 75% 30.09 in 10.0 mi East 10.4 mph - N/A   Overcast
11:53 AM 61.0 °F - 54.0 °F 78% 30.06 in 10.0 mi East 8.1 mph - N/A   Overcast
1:53 PM 68.0 °F - 59.0 °F 73% 29.95 in 10.0 mi SSE 3.5 mph - N/A   Mostly Cloudy
2:53 PM 68.0 °F - 61.0 °F 78% 29.94 in 10.0 mi South 3.5 mph - N/A   Overcast
3:53 PM 66.0 °F - 61.0 °F 84% 29.92 in 9.0 mi Calm Calm - N/A   Overcast
4:53 PM 63.0 °F - 55.0 °F 75% 29.90 in 10.0 mi North 4.6 mph - N/A   Overcast
5:53 PM 61.0 °F - 55.9 °F 83% 29.88 in 10.0 mi SE 3.5 mph - N/A   Scattered Clouds
6:53 PM 62.1 °F - 60.1 °F 93% 29.89 in 9.0 mi Calm Calm - N/A   Overcast
7:10 PM 61.0 °F - 59.0 °F 93% 29.89 in 8.0 mi SSW 3.5 mph - N/A   Overcast
7:53 PM 61.0 °F - 57.9 °F 90% 29.93 in 8.0 mi NW 8.1 mph - N/A   Overcast
8:36 PM 61.0 °F - 55.9 °F 83% 29.94 in 10.0 mi North 9.2 mph 27.6 mph N/A   Overcast
8:53 PM 60.1 °F - 55.9 °F 86% 29.95 in 10.0 mi NNW 4.6 mph - N/A   Overcast
9:53 PM 57.9 °F - 54.0 °F 87% 29.95 in 9.0 mi NNW 9.2 mph - N/A   Overcast
10:02 PM 57.0 °F - 54.0 °F 89% 29.94 in 9.0 mi North 6.9 mph - N/A   Mostly Cloudy
10:50 PM 57.2 °F - 53.6 °F 88% 29.95 in 8.0 mi NNW 5.8 mph - N/A   Overcast
10:53 PM 57.0 °F - 54.0 °F 89% 29.95 in 8.0 mi NNW 6.9 mph - N/A   Overcast
11:53 PM 55.0 °F - 52.0 °F 89% 29.93 in 7.0 mi North 4.6 mph - N/A   Mostly Cloudy